Weather History for KPIT - April, 2013

Change the Weather History Date:

Tuesday, April 2, 2013

  Actual Average Record
Temperature  
Mean Temperature 33 °F 46 °F  
Max Temperature 40 °F 57 °F 85 °F (2010)
Min Temperature 26 °F 36 °F 17 °F (1907)
Degree Days  
Heating Degree Days 32 19  
Month to date heating degree days 58 38  
Since 1 July heating degree days 5064 5083  
Cooling Degree Days 0 0  
Month to date cooling degree days 0 0  
Year to date cooling degree days 0 1  
Moisture  
Dew Point 14 °F    
Average Humidity 54    
Maximum Humidity 75    
Minimum Humidity 32    
Precipitation  
Precipitation T in 0.10 in 1.49 in (1977)
Month to date precipitation 0.02 0.21  
Year to date precipitation 6.76 8.25  
Snow  
Snow T in 0.10 in 1.50 in (2005)
Month to date snowfall T 0.2  
Since 1 July snowfall 57.4 40.6  
Snow Depth 0.00 in    
Sea Level Pressure  
Sea Level Pressure 30.14 in    
Wind  
Wind Speed 12 mph (WNW)    
Max Wind Speed 22 mph    
Max Gust Speed 28 mph    
Visibility 9 miles    
Events Snow    
T = Trace of Precipitation, MM = Missing Value Source: NWS Daily Summary

Daily Weather History Graph

Daily Weather History Graph

Search for Another Location

Airport or City:

Trip Planner

Search our weather history database for the weather conditions in past years. The results will help you decide how hot, cold, wet, or windy it might be!

Date:

Astronomy

Apr. 02, 2013 Rise Set
Actual Time 7:02 AM EDT 7:46 PM EDT
Civil Twilight 6:34 AM EDT 8:14 PM EDT
Nautical Twilight 6:02 AM EDT 8:47 PM EDT
Astronomical Twilight 5:28 AM EDT 9:20 PM EDT
Moon 1:50 AM EDT (4/2) 11:50 AM EDT (4/2)
Length of Visible Light 13h 39m
Length of Day
12h 44m
Waning Gibbous, 56% of the Moon is Illuminated
Apr 2
Waning Gibbous
Apr 3
Last Quarter
Apr 10
New
Apr 18
First Quarter
Apr 25
Full

Hourly Weather History & Observations

Time (EDT) Temp. Windchill Dew Point Humidity Pressure Visibility Wind Dir Wind Speed Gust Speed Precip Events Conditions
12:51 AM 30.0 °F 21.7 °F 15.1 °F 54% 30.06 in 10.0 mi WNW 9.2 mph - N/A   Partly Cloudy
1:51 AM 28.4 °F 21.2 °F 15.8 °F 59% 30.01 in 10.0 mi West 6.9 mph - N/A   Partly Cloudy
2:51 AM 28.9 °F 20.4 °F 16.0 °F 58% 30.06 in 10.0 mi WNW 9.2 mph - N/A   Partly Cloudy
3:51 AM 26.6 °F 19.1 °F 15.8 °F 64% 30.01 in 10.0 mi WNW 6.9 mph - N/A   Partly Cloudy
4:51 AM 26.1 °F 19.4 °F 16.0 °F 66% 30.08 in 10.0 mi WNW 5.8 mph - N/A   Mostly Cloudy
5:51 AM 27.0 °F 18.0 °F 18.0 °F 69% 30.10 in 8.0 mi NNW 9.2 mph - 0.00 in Snow Light Snow
6:51 AM 27.0 °F 18.7 °F 19.0 °F 72% 30.12 in 8.0 mi NNW 8.1 mph - 0.00 in Snow Light Snow
7:06 AM 26.6 °F 17.5 °F 19.4 °F 74% 30.07 in 0.5 mi NW 9.2 mph - 0.00 in Snow Light Snow
7:26 AM 26.6 °F 20.0 °F 21.2 °F 80% 30.09 in 1.0 mi NNW 5.8 mph - 0.00 in Snow Light Snow
7:35 AM 26.6 °F 21.2 °F 21.2 °F 80% 30.09 in 8.0 mi WNW 4.6 mph - 0.00 in Snow Light Snow
7:51 AM 26.1 °F 18.4 °F 18.0 °F 71% 30.16 in 8.0 mi West 6.9 mph - 0.00 in Snow Light Snow
8:51 AM 28.4 °F 18.5 °F 17.6 °F 64% 30.13 in 10.0 mi WNW 11.5 mph - N/A   Partly Cloudy
9:51 AM 30.0 °F 20.0 °F 14.0 °F 51% 30.19 in 10.0 mi NW 12.7 mph - N/A   Scattered Clouds
10:51 AM 32.0 °F 24.2 °F 10.9 °F 42% 30.20 in 10.0 mi West 9.2 mph 19.6 mph N/A   Mostly Cloudy
11:51 AM 34.0 °F 23.4 °F 12.0 °F 40% 30.20 in 10.0 mi WNW 17.3 mph 25.3 mph N/A   Mostly Cloudy
12:51 PM 33.8 °F 24.3 °F 10.4 °F 38% 30.14 in 10.0 mi West 13.8 mph - N/A   Mostly Cloudy
1:51 PM 35.6 °F 24.8 °F 10.4 °F 35% 30.12 in 10.0 mi West 19.6 mph 24.2 mph N/A   Mostly Cloudy
2:51 PM 37.0 °F 26.7 °F 12.0 °F 36% 30.17 in 10.0 mi WNW 19.6 mph 26.5 mph N/A   Mostly Cloudy
3:51 PM 37.9 °F 27.3 °F 12.0 °F 35% 30.16 in 10.0 mi NW 21.9 mph - N/A   Mostly Cloudy
4:51 PM 39.0 °F 29.3 °F 14.0 °F 36% 30.16 in 10.0 mi WNW 19.6 mph 27.6 mph N/A   Mostly Cloudy
5:51 PM 37.9 °F 27.9 °F 12.0 °F 35% 30.17 in 10.0 mi WNW 19.6 mph 26.5 mph N/A   Mostly Cloudy
6:51 PM 37.0 °F 26.7 °F 10.9 °F 34% 30.19 in 10.0 mi WNW 19.6 mph 23.0 mph N/A   Mostly Cloudy
7:51 PM 35.1 °F 27.9 °F 10.9 °F 37% 30.20 in 10.0 mi NW 9.2 mph - N/A   Scattered Clouds
8:51 PM 32.0 °F 25.6 °F 12.0 °F 44% 30.21 in 10.0 mi West 6.9 mph - N/A   Scattered Clouds
9:51 PM 30.9 °F 24.3 °F 10.0 °F 42% 30.22 in 10.0 mi West 6.9 mph - N/A   Partly Cloudy
10:51 PM 32.0 °F 27.5 °F 10.0 °F 40% 30.22 in 10.0 mi WSW 4.6 mph - N/A   Partly Cloudy
11:51 PM 30.9 °F 27.5 °F 10.9 °F 43% 30.22 in 10.0 mi West 3.5 mph - N/A   Partly Cloudy